Terminal Aerodrome Forecast
Issued by NWS

Home | Current Version | Previous Version | Text Only | Print | Product List | Glossary On
Versions: 1 2 3 4 5 6 7 8 9 10 11 12 13 14 15 16
000
FTUS42 KJAX 231120
TAFCRG
TAF
KCRG 231120Z 2312/2412 18004KT P6SM BKN070
     FM231400 21008KT P6SM BKN050
     FM231700 15011KT P6SM VCTS BKN040CB
     FM232300 17008KT P6SM VCSH BKN035=

USA.gov is the U.S. government's official web portal to all federal, state and local government web resources and services.